This demonstration page uses our WeatherBlox Daily Observations layout. Learn more.

Hourly Observations for March 15, 2018

Temp ( °F °C ) Dew Point ( °F °C ) Humidity (%) Winds ( mph kmh ) Pressure ( in mb ) Visibility ( mi km ) Precip ( " mm )
12:15 am 00:15 Clear 44 6.9 27 -2.9 50 50 SSE 7 11 29.83 1010 10 16.0934 0 0
12:35 am 00:35 Clear 42 5.5 27 -3 55 55 SE 8 13 29.83 1010 10 16.0934 0 0
12:55 am 00:55 Clear 44 6.5 27 -2.6 53 53 SSE 7 11 29.83 1010 10 16.0934 0 0
1:15 am 01:15 Clear 42 5.7 27 -2.6 56 56 SSE 8 13 29.83 1010 10 16.0934 0 0
1:35 am 01:35 Clear 41 5.2 27 -2.8 57 57 SSE 6 9 29.83 1010 10 16.0934 0 0
1:55 am 01:55 Clear 41 4.8 27 -3 57 57 SSE 7 11 29.83 1010 10 16.0934 0 0
2:15 am 02:15 Clear 41 5.2 27 -2.6 57 57 SSE 6 9 29.83 1010 10 16.0934 0 0
2:35 am 02:35 Clear 40 4.6 27 -2.8 59 59 SSE 7 11 29.83 1010 10 16.0934 0 0
2:55 am 02:55 Clear 37 2.9 26 -3.2 65 65 SSE 8 13 29.85 1011 10 16.0934 0 0
3:15 am 03:15 Clear 35 1.9 26 -3.4 68 68 SSE 8 13 29.83 1010 10 16.0934 0 0
3:35 am 03:35 Clear 36 2.3 26 -3.2 67 67 SSE 8 13 29.83 1010 10 16.0934 0 0
3:55 am 03:55 Clear 40 4.3 27 -2.8 60 60 S 7 11 29.77 1008 10 16.0934 0 0
4:15 am 04:15 Clear 39 3.7 27 -3 62 62 S 8 13 29.77 1008 10 16.0934 0 0
4:35 am 04:35 Clear 40 4.4 28 -2.5 61 61 S 8 13 29.77 1008 10 16.0934 0 0
4:55 am 04:55 Clear 38 3.2 27 -3 64 64 S 7 11 29.8 1009 10 16.0934 0 0
5:15 am 05:15 Clear 36 2.1 26 -3.4 67 67 S 5 7 29.8 1009 10 16.0934 0 0
5:35 am 05:35 Clear 37 2.8 26 -3.3 65 65 SSE 6 9 29.8 1009 10 16.0934 0 0
5:55 am 05:55 Clear 34 0.9 25 -3.8 71 71 SSE 3 6 29.8 1009 10 16.0934 0 0
6:15 am 06:15 Clear 34 1.3 26 -3.3 72 72 SSE 8 13 29.8 1009 10 16.0934 0 0
6:35 am 06:35 Clear 34 1.1 25 -3.8 70 70 SE 6 9 29.77 1008 10 16.0934 0 0
6:55 am 06:55 Clear 34 0.9 25 -3.9 71 71 SE 7 11 29.77 1008 10 16.0934 0 0
7:15 am 07:15 Clear 33 0.8 25 -3.7 72 72 SE 6 9 29.77 1008 10 16.0934 0 0
7:35 am 07:35 Clear 34 1.1 26 -3.5 72 72 SE 7 11 29.77 1008 10 16.0934 0 0
7:55 am 07:55 Sunny 33 0.8 26 -3.5 73 73 SE 8 13 29.77 1008 10 16.0934 0 0
8:15 am 08:15 Sunny 35 1.9 27 -3 70 70 SE 7 11 29.77 1008 10 16.0934 0 0
8:35 am 08:35 Sunny 36 2.4 27 -2.6 70 70 SE 6 9 29.77 1008 10 16.0934 0 0
8:55 am 08:55 Sunny 39 4 28 -2.2 64 64 SE 6 9 29.74 1007 10 16.0934 0 0
9:15 am 09:15 Sunny 42 5.3 29 -1.5 62 62 SE 6 9 29.74 1007 10 16.0934 0 0
9:35 am 09:35 Sunny 45 7.3 30 -1.1 56 56 SE 9 15 29.71 1006 10 16.0934 0 0
9:55 am 09:55 Sunny 49 9.2 30 -1.2 49 49 SE 10 17 29.71 1006 10 16.0934 0 0
10:15 am 10:15 Sunny 51 10.5 30 -1.2 44 44 SE 9 15 29.68 1005 10 16.0934 0 0
10:35 am 10:35 Sunny 53 11.7 30 -1 42 42 SE 12 19 29.68 1005 10 16.0934 0 0
10:55 am 10:55 Sunny 54 12.2 30 -0.9 41 41 SE 9 15 29.68 1005 10 16.0934 0 0
11:15 am 11:15 Sunny 56 13.1 31 -0.7 39 39 SE 7 11 29.65 1004 10 16.0934 0 0
11:35 am 11:35 Sunny 57 13.8 31 -0.5 38 38 SE 8 13 29.62 1003 10 16.0934 0 0
11:55 am 11:55 Sunny 58 14.5 32 -0.2 37 37 E 9 15 29.62 1003 10 16.0934 0 0
12:15 pm 12:15 Sunny 59 15 32 -0.1 36 36 E 12 19 29.62 1003 10 16.0934 0 0
12:35 pm 12:35 Sunny 60 15.6 32 0 35 35 E 14 22 29.62 1003 10 16.0934 0 0
12:55 pm 12:55 Sunny 62 16.5 32 0.1 33 33 E 14 22 29.59 1002 10 16.0934 0 0
1:15 pm 13:15 Sunny 62 16.5 32 0.1 33 33 E 16 26 29.59 1002 10 16.0934 0 0
1:35 pm 13:35 Sunny 63 17 33 0.4 33 33 ESE 15 24 29.59 1002 10 16.0934 0 0
1:55 pm 13:55 Sunny 63 17.4 33 0.4 32 32 E 22 35 29.59 1002 10 16.0934 0 0
2:15 pm 14:15 Sunny 65 18.1 33 0.5 31 31 ESE 17 28 29.56 1001 10 16.0934 0 0
2:35 pm 14:35 Sunny 65 18.4 33 0.6 30 30 ESE 23 37 29.56 1001 10 16.0934 0 0
2:55 pm 14:55 Sunny 65 18.6 33 0.7 30 30 SE 17 28 29.56 1001 10 16.0934 0 0
3:15 pm 15:15 Sunny 66 19 34 0.9 30 30 ESE 17 28 29.53 1000 10 16.0934 0 0
3:35 pm 15:35 Sunny 66 19 34 1 30 30 E 18 30 29.53 1000 10 16.0934 0 0
3:55 pm 15:55 Sunny 67 19.2 34 1.2 30 30 ESE 17 28 29.5 999 10 16.0934 0 0
4:15 pm 16:15 Sunny 67 19.3 34 1.3 30 30 E 20 31 29.5 999 10 16.0934 0 0
4:35 pm 16:35 Sunny 67 19.7 35 1.5 30 30 E 24 39 29.5 999 10 16.0934 0 0
4:55 pm 16:55 Sunny 67 19.7 35 1.5 30 30 E 22 35 29.5 999 10 16.0934 0 0
5:15 pm 17:15 Sunny 68 19.8 35 1.7 30 30 ESE 22 35 29.47 998 10 16.0934 0 0
5:35 pm 17:35 Sunny 67 19.7 35 1.7 30 30 ESE 23 37 29.47 998 10 16.0934 0 0
5:55 pm 17:55 Sunny 67 19.6 35 1.8 31 31 E 23 37 29.47 998 10 16.0934 0 0
6:15 pm 18:15 Sunny 67 19.4 36 2 32 32 E 21 33 29.47 998 10 16.0934 0 0
6:35 pm 18:35 Sunny 67 19.2 36 2 32 32 E 22 35 29.44 997 10 16.0934 0 0
6:55 pm 18:55 Sunny 65 18.6 35 1.9 33 33 E 23 37 29.44 997 10 16.0934 0 0
7:15 pm 19:15 Sunny 64 18 35 1.7 34 34 E 21 33 29.47 998 10 16.0934 0 0
7:35 pm 19:35 Sunny 62 16.8 35 1.6 36 36 E 16 26 29.47 998 10 16.0934 0 0
7:55 pm 19:55 Clear 61 16.3 35 1.5 37 37 E 15 24 29.47 998 10 16.0934 0 0
8:15 pm 20:15 Clear 58 14.5 33 0.8 40 40 E 20 31 29.5 999 10 16.0934 0 0
8:35 pm 20:35 Partly Cloudy 59 15.1 34 1 39 39 E 23 37 29.47 998 10 16.0934 0 0
8:55 pm 20:55 Clear 58 14.2 33 0.8 40 40 E 22 35 29.5 999 10 16.0934 0 0
9:15 pm 21:15 Clear 56 13.4 33 0.4 41 41 ENE 21 33 29.5 999 10 16.0934 0 0
9:35 pm 21:35 Partly Cloudy 54 12.4 32 0 43 43 ENE 24 39 29.53 1000 10 16.0934 0 0
9:55 pm 21:55 Partly Cloudy 54 12 32 0 44 44 ENE 28 44 29.53 1000 10 16.0934 0 0
10:15 pm 22:15 Partly Cloudy 53 11.5 32 0 45 45 E 28 44 29.5 999 10 16.0934 0 0
10:35 pm 22:35 Clear 52 11.2 32 0 46 46 E 24 39 29.53 1000 10 16.0934 0 0
10:55 pm 22:55 Clear 52 11 32 0.2 48 48 E 25 41 29.53 1000 10 16.0934 0 0
11:15 pm 23:15 Clear 51 10.7 33 0.5 50 50 E 25 41 29.5 999 10 16.0934 0 0
11:35 pm 23:35 Clear 50 10.2 33 0.5 51 51 E 25 41 29.5 999 10 16.0934 0 0
11:55 pm 23:55 Clear 50 10 33 0.5 52 52 E 26 43 29.5 999 10 16.0934 0 0

Powered by AerisWeather